DAL1227 KTPA-KATL

Flight info

Callsign DAL1227
Flight time 1h 5m
Altitude 37000
Route BAYPO2 CAMJO LAIRI/N0484F360 LARZZ JJEDI4
Aircraft L101/H-SDFGHIRWXY/S

Departure

Time 2026-05-06 02:27
Airport Tampa International Airport (KTPA)

Arrival

Time 2026-05-06 03:32
Airport Hartsfield Jackson Atlanta International Airport (KATL)
Time Latitude Longitude Altitude Speed Heading
2026-05-06 01:27 27.98106 -82.53880 47 ft 0 kts 128°
2026-05-06 02:12 27.98112 -82.53888 45 ft 3 kts 128°
2026-05-06 02:13 27.98128 -82.53912 45 ft 3 kts 128°
2026-05-06 02:13 27.98146 -82.53935 46 ft 4 kts 137°
2026-05-06 02:13 27.98167 -82.53954 48 ft 4 kts 153°
2026-05-06 02:13 27.98171 -82.53957 48 ft 0 kts 156°
2026-05-06 02:21 27.98163 -82.53954 48 ft 3 kts 166°
2026-05-06 02:21 27.98131 -82.53958 48 ft 7 kts 190°
2026-05-06 02:21 27.98070 -82.53969 49 ft 9 kts 187°
2026-05-06 02:21 27.98023 -82.54036 48 ft 9 kts 238°
2026-05-06 02:22 27.97981 -82.54055 52 ft 11 kts 184°
2026-05-06 02:22 27.97889 -82.54060 49 ft 15 kts 182°
2026-05-06 02:22 27.97771 -82.54064 49 ft 19 kts 181°
2026-05-06 02:22 27.97630 -82.54068 49 ft 22 kts 181°
2026-05-06 02:23 27.97475 -82.54074 51 ft 22 kts 182°
2026-05-06 02:23 27.97362 -82.54078 53 ft 13 kts 181°
2026-05-06 02:23 27.97259 -82.54081 47 ft 17 kts 181°
2026-05-06 02:23 27.97131 -82.54086 49 ft 20 kts 183°
2026-05-06 02:24 27.96984 -82.54091 50 ft 20 kts 180°
2026-05-06 02:24 27.96836 -82.54095 49 ft 23 kts 181°
2026-05-06 02:24 27.96684 -82.54100 51 ft 23 kts 180°
2026-05-06 02:24 27.96551 -82.54104 48 ft 14 kts 182°
2026-05-06 02:25 27.96448 -82.54109 50 ft 15 kts 182°
2026-05-06 02:25 27.96368 -82.54115 51 ft 8 kts 194°
2026-05-06 02:25 27.96356 -82.54121 45 ft 0 kts 211°
2026-05-06 02:26 27.96352 -82.54127 50 ft 3 kts 227°
2026-05-06 02:26 27.96344 -82.54167 52 ft 8 kts 270°
2026-05-06 02:26 27.96370 -82.54232 50 ft 10 kts 336°
2026-05-06 02:26 27.96447 -82.54232 50 ft 13 kts
2026-05-06 02:27 27.96652 -82.54223 50 ft 67 kts
2026-05-06 02:27 27.97445 -82.54199 51 ft 157 kts
2026-05-06 02:27 27.98692 -82.54171 726 ft 187 kts
2026-05-06 02:27 27.99973 -82.54177 1902 ft 185 kts
2026-05-06 02:28 28.01251 -82.54200 2570 ft 184 kts
2026-05-06 02:28 28.02539 -82.54232 3144 ft 187 kts
2026-05-06 02:28 28.03878 -82.54283 3498 ft 203 kts
2026-05-06 02:28 28.05357 -82.54352 3837 ft 219 kts 359°
2026-05-06 02:29 28.06932 -82.54421 4476 ft 223 kts 360°
2026-05-06 02:29 28.08502 -82.54481 5052 ft 229 kts 360°
2026-05-06 02:29 28.10118 -82.54501 5664 ft 235 kts 359°
2026-05-06 02:29 28.11734 -82.54629 6393 ft 235 kts 352°
2026-05-06 02:30 28.13378 -82.55043 6646 ft 251 kts 341°
2026-05-06 02:30 28.15111 -82.55743 6570 ft 275 kts 336°
2026-05-06 02:30 28.16890 -82.56582 6834 ft 271 kts 339°
2026-05-06 02:30 28.18637 -82.57243 7291 ft 267 kts 341°
2026-05-06 02:31 28.20474 -82.57830 7596 ft 282 kts 346°
2026-05-06 02:31 28.22412 -82.58100 8376 ft 276 kts 356°
2026-05-06 02:31 28.24299 -82.58087 9205 ft 271 kts 359°
2026-05-06 02:31 28.26234 -82.58012 9432 ft 287 kts 359°
2026-05-06 02:32 28.28248 -82.57948 9720 ft 296 kts 358°
2026-05-06 02:32 28.30281 -82.57921 10485 ft 287 kts 357°
2026-05-06 02:32 28.32300 -82.57943 10969 ft 296 kts 356°
2026-05-06 02:32 28.34431 -82.58016 11241 ft 317 kts 355°
2026-05-06 02:33 28.36686 -82.58113 11695 ft 328 kts 355°
2026-05-06 02:33 28.38240 -82.58174 12042 ft 335 kts 356°
2026-05-06 02:33 28.44004 -82.58329 12539 ft 372 kts 357°
2026-05-06 02:34 28.46616 -82.58384 13057 ft 375 kts 357°
2026-05-06 02:34 28.49233 -82.58433 13694 ft 382 kts 357°
2026-05-06 02:34 28.51893 -82.58491 14550 ft 382 kts 357°
2026-05-06 02:34 28.54577 -82.58557 15265 ft 387 kts 356°
2026-05-06 02:35 28.57289 -82.58630 16023 ft 392 kts 356°
2026-05-06 02:35 28.60029 -82.58705 16759 ft 397 kts 356°
2026-05-06 02:35 28.62806 -82.58780 17484 ft 401 kts 356°
2026-05-06 02:35 28.65610 -82.58852 18264 ft 406 kts 356°
2026-05-06 02:36 28.68453 -82.58944 18974 ft 409 kts 354°
2026-05-06 02:36 28.71260 -82.59201 19680 ft 411 kts 351°
2026-05-06 02:36 28.74107 -82.59641 20398 ft 414 kts 348°
2026-05-06 02:36 28.76961 -82.60172 21092 ft 418 kts 347°
2026-05-06 02:37 28.79844 -82.60708 21804 ft 422 kts 348°
2026-05-06 02:37 28.82772 -82.61191 22545 ft 427 kts 349°
2026-05-06 02:37 28.85736 -82.61609 23295 ft 431 kts 349°
2026-05-06 02:37 28.88737 -82.61987 23987 ft 435 kts 349°
2026-05-06 02:38 28.91762 -82.62360 24677 ft 438 kts 349°
2026-05-06 02:38 28.94797 -82.62752 25391 ft 440 kts 349°
2026-05-06 02:38 28.97850 -82.63175 26116 ft 443 kts 348°
2026-05-06 02:38 29.00918 -82.63620 26858 ft 446 kts 348°
2026-05-06 02:39 29.04007 -82.64079 27622 ft 449 kts 348°
2026-05-06 02:39 29.07116 -82.64537 28402 ft 452 kts 348°
2026-05-06 02:39 29.10249 -82.64987 29109 ft 455 kts 348°
2026-05-06 02:39 29.13381 -82.65426 30087 ft 451 kts 348°
2026-05-06 02:40 29.16487 -82.65854 31004 ft 447 kts 347°
2026-05-06 02:40 29.19561 -82.66280 31864 ft 443 kts 347°
2026-05-06 02:40 29.22618 -82.66710 32695 ft 439 kts 347°
2026-05-06 02:40 29.25637 -82.67141 33503 ft 435 kts 346°
2026-05-06 02:41 29.28632 -82.67572 34221 ft 432 kts 346°
2026-05-06 02:41 29.31566 -82.67997 34825 ft 430 kts 346°
2026-05-06 02:41 29.34522 -82.68422 35475 ft 427 kts 345°
2026-05-06 02:41 29.37444 -82.68841 36210 ft 421 kts 345°
2026-05-06 02:42 29.40344 -82.69259 36788 ft 420 kts 345°
2026-05-06 02:42 29.43266 -82.69640 37005 ft 426 kts 347°
2026-05-06 02:42 29.46241 -82.69799 37048 ft 429 kts 351°
2026-05-06 02:43 29.52224 -82.69547 37083 ft 431 kts 354°
2026-05-06 02:43 29.58196 -82.69235 37081 ft 428 kts 352°
2026-05-06 02:44 29.64137 -82.69220 37097 ft 426 kts 350°
2026-05-06 02:44 29.70057 -82.69296 37084 ft 425 kts 351°
2026-05-06 02:45 29.75973 -82.69280 37084 ft 426 kts 352°
2026-05-06 02:45 29.81905 -82.69206 37086 ft 426 kts 352°
2026-05-06 02:46 29.87837 -82.69152 37085 ft 426 kts 351°
2026-05-06 02:46 29.93766 -82.69125 37098 ft 425 kts 351°
2026-05-06 02:47 29.99668 -82.69100 37095 ft 425 kts 351°
2026-05-06 02:47 30.05544 -82.69063 37090 ft 425 kts 351°
2026-05-06 02:48 30.07540 -82.69049 37089 ft 425 kts 351°
2026-05-06 02:48 30.17262 -82.68984 37094 ft 425 kts 351°
2026-05-06 02:49 30.23137 -82.68950 37093 ft 424 kts 351°
2026-05-06 02:49 30.29022 -82.68921 37083 ft 423 kts 351°
2026-05-06 02:50 30.34907 -82.68888 37079 ft 423 kts 351°
2026-05-06 02:50 30.40798 -82.68849 37081 ft 423 kts 351°
2026-05-06 02:51 30.46684 -82.68810 37078 ft 423 kts 351°
2026-05-06 02:51 30.52532 -82.68753 37079 ft 424 kts 352°
2026-05-06 02:52 30.58490 -82.68404 37079 ft 427 kts 354°
2026-05-06 02:52 30.64393 -82.67808 37077 ft 429 kts 355°
2026-05-06 02:53 30.70337 -82.67151 37076 ft 429 kts 355°
2026-05-06 02:53 30.76278 -82.66544 37083 ft 428 kts 355°
2026-05-06 02:54 30.82205 -82.65998 37062 ft 426 kts 354°
2026-05-06 02:54 30.88124 -82.65478 37060 ft 426 kts 354°
2026-05-06 02:55 30.94040 -82.64948 37075 ft 426 kts 354°
2026-05-06 02:55 30.99959 -82.64406 37077 ft 427 kts 354°
2026-05-06 02:56 31.05875 -82.63862 37093 ft 426 kts 354°
2026-05-06 02:56 31.11741 -82.63328 37083 ft 425 kts 354°
2026-05-06 02:57 31.17634 -82.62793 37072 ft 425 kts 354°
2026-05-06 02:57 31.23524 -82.62253 37069 ft 425 kts 354°
2026-05-06 02:58 31.29413 -82.61709 37066 ft 425 kts 354°
2026-05-06 02:58 31.35302 -82.61164 37071 ft 424 kts 354°
2026-05-06 02:59 31.41186 -82.60622 37068 ft 424 kts 354°
2026-05-06 02:59 31.47079 -82.60078 37072 ft 424 kts 354°
2026-05-06 03:00 31.52967 -82.59532 37071 ft 424 kts 354°
2026-05-06 03:00 31.58857 -82.58985 37090 ft 424 kts 354°
2026-05-06 03:01 31.64702 -82.58441 37058 ft 424 kts 354°
2026-05-06 03:01 31.70591 -82.57892 37065 ft 425 kts 354°
2026-05-06 03:02 31.76490 -82.57341 37036 ft 425 kts 354°
2026-05-06 03:02 31.79456 -82.57065 36598 ft 426 kts 354°
2026-05-06 03:02 31.82385 -82.56780 36074 ft 419 kts 354°
2026-05-06 03:02 31.85267 -82.56495 35591 ft 414 kts 354°
2026-05-06 03:03 31.88136 -82.56217 35152 ft 414 kts 354°
2026-05-06 03:03 31.91015 -82.55945 34680 ft 416 kts 354°
2026-05-06 03:03 31.93900 -82.55800 34209 ft 411 kts 347°
2026-05-06 03:03 31.96674 -82.56316 33705 ft 399 kts 336°
2026-05-06 03:04 31.99218 -82.57516 33223 ft 392 kts 326°
2026-05-06 03:04 32.01509 -82.59238 32755 ft 390 kts 319°
2026-05-06 03:04 32.03588 -82.61300 32295 ft 391 kts 314°
2026-05-06 03:04 32.05510 -82.63527 31844 ft 394 kts 312°
2026-05-06 03:05 32.07412 -82.65874 31381 ft 397 kts 312°
2026-05-06 03:05 32.09327 -82.68243 30921 ft 401 kts 313°
2026-05-06 03:05 32.11294 -82.70586 30477 ft 404 kts 314°
2026-05-06 03:05 32.13329 -82.72886 30021 ft 407 kts 315°
2026-05-06 03:06 32.15437 -82.75151 29497 ft 411 kts 316°
2026-05-06 03:06 32.17596 -82.77378 28988 ft 414 kts 317°
2026-05-06 03:06 32.19802 -82.79596 28436 ft 417 kts 317°
2026-05-06 03:06 32.22002 -82.81775 27926 ft 408 kts 317°
2026-05-06 03:07 32.24169 -82.83913 27444 ft 403 kts 317°
2026-05-06 03:07 32.26304 -82.86036 26967 ft 401 kts 317°
2026-05-06 03:07 32.28427 -82.88170 26508 ft 400 kts 317°
2026-05-06 03:07 32.30537 -82.90313 26054 ft 399 kts 316°
2026-05-06 03:08 32.32630 -82.92456 25611 ft 398 kts 316°
2026-05-06 03:08 32.34717 -82.94601 25151 ft 396 kts 316°
2026-05-06 03:08 32.36794 -82.96742 24726 ft 395 kts 316°
2026-05-06 03:08 32.38868 -82.98880 24303 ft 395 kts 316°
2026-05-06 03:09 32.40915 -83.00974 23892 ft 394 kts 316°
2026-05-06 03:09 32.42998 -83.03079 23489 ft 393 kts 316°
2026-05-06 03:09 32.45073 -83.05175 22991 ft 392 kts 316°
2026-05-06 03:09 32.47133 -83.07274 22520 ft 389 kts 316°
2026-05-06 03:10 32.49167 -83.09366 22139 ft 386 kts 316°
2026-05-06 03:10 32.51187 -83.11458 21756 ft 384 kts 316°
2026-05-06 03:10 32.53194 -83.13540 21382 ft 382 kts 316°
2026-05-06 03:10 32.55193 -83.15612 21014 ft 381 kts 316°
2026-05-06 03:11 32.57184 -83.17662 20653 ft 378 kts 316°
2026-05-06 03:11 32.59161 -83.19704 20317 ft 375 kts 316°
2026-05-06 03:11 32.61120 -83.21736 19985 ft 373 kts 316°
2026-05-06 03:11 32.63070 -83.23765 19653 ft 371 kts 316°
2026-05-06 03:12 32.65012 -83.25785 19328 ft 370 kts 316°
2026-05-06 03:12 32.66943 -83.27789 19005 ft 368 kts 316°
2026-05-06 03:12 32.68863 -83.29783 18706 ft 367 kts 316°
2026-05-06 03:12 32.70132 -83.31103 18514 ft 366 kts 316°
2026-05-06 03:13 32.72046 -83.33096 18224 ft 364 kts 316°
2026-05-06 03:13 32.73946 -83.35073 17873 ft 363 kts 316°
2026-05-06 03:13 32.75842 -83.37044 17532 ft 362 kts 316°
2026-05-06 03:13 32.78348 -83.39652 17091 ft 360 kts 316°
2026-05-06 03:14 32.80225 -83.41610 16779 ft 358 kts 316°
2026-05-06 03:14 32.81486 -83.42926 16542 ft 357 kts 316°
2026-05-06 03:14 32.83331 -83.44852 16238 ft 356 kts 316°
2026-05-06 03:14 32.85189 -83.46790 15917 ft 355 kts 316°
2026-05-06 03:15 32.87042 -83.48724 15600 ft 354 kts 316°
2026-05-06 03:15 32.88887 -83.50651 15285 ft 352 kts 316°
2026-05-06 03:15 32.90693 -83.52538 14983 ft 336 kts 316°
2026-05-06 03:15 32.92416 -83.54337 14694 ft 325 kts 316°
2026-05-06 03:16 32.94108 -83.56111 14446 ft 324 kts 316°
2026-05-06 03:16 32.95801 -83.57890 14210 ft 324 kts 316°
2026-05-06 03:16 32.97496 -83.59666 13940 ft 325 kts 316°
2026-05-06 03:16 32.99195 -83.61441 13578 ft 324 kts 316°
2026-05-06 03:17 33.00881 -83.63202 13315 ft 322 kts 316°
2026-05-06 03:17 33.02561 -83.64964 13067 ft 322 kts 316°
2026-05-06 03:17 33.04238 -83.66724 12803 ft 321 kts 315°
2026-05-06 03:17 33.05908 -83.68479 12486 ft 314 kts 315°
2026-05-06 03:18 33.07502 -83.70148 12187 ft 297 kts 315°
2026-05-06 03:18 33.08998 -83.71715 11905 ft 282 kts 315°
2026-05-06 03:18 33.10452 -83.73243 11606 ft 278 kts 315°
2026-05-06 03:18 33.11922 -83.74797 11328 ft 280 kts 314°
2026-05-06 03:19 33.13366 -83.76323 11040 ft 281 kts 314°
2026-05-06 03:19 33.14830 -83.77864 10752 ft 281 kts 314°
2026-05-06 03:19 33.16289 -83.79402 10453 ft 280 kts 314°
2026-05-06 03:19 33.17745 -83.80941 10223 ft 278 kts 314°
2026-05-06 03:20 33.20610 -83.84050 9676 ft 278 kts 311°
2026-05-06 03:20 33.21980 -83.85683 9262 ft 277 kts 310°
2026-05-06 03:20 33.23325 -83.87332 8871 ft 277 kts 310°
2026-05-06 03:21 33.24665 -83.88974 8476 ft 275 kts 310°
2026-05-06 03:21 33.26006 -83.90598 8211 ft 273 kts 310°
2026-05-06 03:21 33.27348 -83.92204 8075 ft 274 kts 310°
2026-05-06 03:21 33.28703 -83.93814 8028 ft 275 kts 310°
2026-05-06 03:22 33.30065 -83.95429 8009 ft 276 kts 310°
2026-05-06 03:22 33.31424 -83.97045 8005 ft 276 kts 310°
2026-05-06 03:22 33.32783 -83.98671 7995 ft 276 kts 310°
2026-05-06 03:22 33.34150 -84.00312 7735 ft 280 kts 310°
2026-05-06 03:23 33.35538 -84.01928 7375 ft 279 kts 317°
2026-05-06 03:23 33.37261 -84.03039 6989 ft 286 kts 338°
2026-05-06 03:23 33.39228 -84.03436 6696 ft 289 kts 353°
2026-05-06 03:23 33.41251 -84.03401 6491 ft 293 kts 360°
2026-05-06 03:24 33.43290 -84.03226 6246 ft 294 kts
2026-05-06 03:24 33.45324 -84.03067 6078 ft 290 kts
2026-05-06 03:24 33.47307 -84.02908 6011 ft 281 kts 359°
2026-05-06 03:24 33.49203 -84.03081 5993 ft 274 kts 343°
2026-05-06 03:25 33.51026 -84.03721 6021 ft 272 kts 334°
2026-05-06 03:25 33.52746 -84.04654 5995 ft 272 kts 328°
2026-05-06 03:25 33.54400 -84.05697 5819 ft 263 kts 326°
2026-05-06 03:25 33.55968 -84.06728 5591 ft 252 kts 326°
2026-05-06 03:26 33.57469 -84.07724 5404 ft 242 kts 325°
2026-05-06 03:26 33.58881 -84.08800 5244 ft 240 kts 317°
2026-05-06 03:26 33.60170 -84.10081 5139 ft 242 kts 313°
2026-05-06 03:26 33.61417 -84.11440 5027 ft 241 kts 311°
2026-05-06 03:27 33.62640 -84.12805 4994 ft 238 kts 309°
2026-05-06 03:27 33.63490 -84.14434 4958 ft 228 kts 279°
2026-05-06 03:27 33.63472 -84.16256 4874 ft 212 kts 254°
2026-05-06 03:27 33.63185 -84.17896 4822 ft 199 kts 258°
2026-05-06 03:28 33.63116 -84.19580 4565 ft 203 kts 265°
2026-05-06 03:28 33.63140 -84.21253 4280 ft 199 kts 266°
2026-05-06 03:28 33.63155 -84.22902 4037 ft 201 kts 265°
2026-05-06 03:28 33.63156 -84.24580 3771 ft 201 kts 265°
2026-05-06 03:29 33.63156 -84.26242 3509 ft 195 kts 265°
2026-05-06 03:29 33.63154 -84.27833 3280 ft 185 kts 264°
2026-05-06 03:29 33.63158 -84.29317 3165 ft 176 kts 263°
2026-05-06 03:29 33.63161 -84.30818 2848 ft 182 kts 263°
2026-05-06 03:30 33.63166 -84.32323 2581 ft 177 kts 263°
2026-05-06 03:30 33.63172 -84.33739 2371 ft 164 kts 263°
2026-05-06 03:30 33.63171 -84.35040 2112 ft 146 kts 262°
2026-05-06 03:30 33.63170 -84.36219 1889 ft 143 kts 261°
2026-05-06 03:31 33.63166 -84.37457 1837 ft 155 kts 262°
2026-05-06 03:31 33.63163 -84.38783 1624 ft 163 kts 266°
2026-05-06 03:31 33.63177 -84.40091 1366 ft 151 kts 269°
2026-05-06 03:31 33.63184 -84.41328 1145 ft 146 kts 268°
2026-05-06 03:32 33.63183 -84.42510 1010 ft 132 kts 269°
2026-05-06 03:32 33.63183 -84.43413 1012 ft 87 kts 270°
2026-05-06 03:32 33.63184 -84.43975 1009 ft 46 kts 277°
2026-05-06 03:32 33.63254 -84.44218 1010 ft 19 kts 298°
2026-05-06 03:33 33.63311 -84.44291 1011 ft 8 kts
2026-05-06 03:33 33.63357 -84.44242 1011 ft 10 kts 50°
2026-05-06 03:33 33.63422 -84.44196 1011 ft 13 kts
2026-05-06 03:33 33.63516 -84.44193 1012 ft 12 kts
2026-05-06 03:34 33.63603 -84.44193 1012 ft 14 kts 360°
2026-05-06 03:34 33.63659 -84.44170 1012 ft 9 kts 63°
2026-05-06 03:34 33.63664 -84.44091 1012 ft 8 kts 91°
2026-05-06 03:34 33.63663 -84.44007 1012 ft 12 kts 90°
2026-05-06 03:35 33.63663 -84.43895 1011 ft 13 kts 89°
2026-05-06 03:35 33.63666 -84.43797 1011 ft 7 kts 70°
2026-05-06 03:35 33.63698 -84.43787 1011 ft 7 kts 359°
2026-05-06 03:35 33.63753 -84.43788 1011 ft 7 kts 360°
2026-05-06 03:36 33.63803 -84.43787 1011 ft 6 kts
2026-05-06 03:36 33.63837 -84.43805 1011 ft 5 kts 302°
2026-05-06 03:36 33.63841 -84.43843 1011 ft 3 kts 270°
2026-05-06 03:36 33.63842 -84.43859 1011 ft 0 kts 271°